Miscellaneous Local Product
Issued by NWS Hastings, NE

Home | Current Version | Previous Version | Graphics & Text | Print | Product List | Glossary On
Versions: 1 2 3 4 5 6 7 8 9 10 11 12 13 14 15 16 17 18 19 20 21 22 23 24 25 26 27 28 29 30 31 32 33 34 35 36 37 38 39 40 41 42 43 44 45 46 47 48 49 50
000
AXUS43 KGID 280502
MISGRI

GID CWA HOURLY WEATHER ROUNDUP
NATIONAL WEATHER SERVICE HASTINGS NE
1200 AM CDT THU APR 28 2016

NOTE: "FAIR" INDICATES FEW OR NO CLOUDS BELOW 12,000 FEET WITH NO
SIGNIFICANT WEATHER AND/OR OBSTRUCTIONS TO VISIBILITY.

...SOUTH CENTRAL NEBRASKA...

CITY           SKY/WX    TMP DP  RH WIND       PRES   REMARKS
GRAND ISLAND   CLOUDY    41  38  89 NW23      29.72R
HASTINGS       MOCLDY    40  36  86 NW21G30   29.72S WCI  30
KEARNEY        CLOUDY    37  34  87 NW21      29.77R WCI  27
ORD            CLOUDY    40  38  93 NW16G25   29.73S WCI  31
YORK           LGT RAIN  45  41  87 NW25G31   29.66R
AURORA         CLOUDY    42  40  93 NW24G30   29.70R
LEXINGTON      CLEAR     36  32  85 NW16      29.82R WCI  27
HOLDREGE       CLEAR     37  33  83 NW14G21   29.80R WCI  29
HEBRON         CLOUDY    43  38  83 NW17G24   29.71R

...NEBRASKA PANHANDLE...

CITY           SKY/WX    TMP DP  RH WIND       PRES   REMARKS
CHADRON        CLOUDY    33  31  92 N10       29.93R WCI  25
ALLIANCE       CLOUDY    32  30  92 N12       29.89R WCI  23
SCOTTSBLUFF    CLOUDY    35  29  78 N9        29.93R WCI  28
SIDNEY         MOCLDY    33  28  81 N16       29.90R WCI  23

...WESTERN AND NORTH CENTRAL NEBRASKA...

CITY           SKY/WX    TMP DP  RH WIND       PRES   REMARKS
VALENTINE      CLOUDY    34  32  92 NW12      29.83S WCI  25
AINSWORTH      CLOUDY    35  35  99 NW14      29.81R FOG     WCI  26
ONEILL         CLOUDY    42  41  96 N14       29.75R FOG
BROKEN BOW     CLOUDY    36  34  92 NW17      29.78S WCI  26
IMPERIAL       CLEAR     37  31  78 NW14      29.89R WCI  28
NORTH PLATTE   CLOUDY    34  30  85 W10       29.85R WCI  26
MCCOOK         CLEAR     37  32  82 NW9       29.86R WCI  30

...EASTERN NEBRASKA...

CITY           SKY/WX    TMP DP  RH WIND       PRES   REMARKS
NORFOLK        LGT RAIN  45  43  93 N13       29.67R
SO SIOUX CITY  LGT RAIN  46  42  86 NE17G26   29.65R
TEKAMAH        LGT RAIN  47  46  97 N14       29.60R
COLUMBUS       CLOUDY    48  39  71 N10       29.65R
ALBION         RAIN      44  42  94 NW12G21   29.69R
OMAHA EPPLEY   MOCLDY    46  43  89 SE7       29.61R
OFFUTT AFB     CLOUDY    46  44  94 SE3       29.60S
MILLARD        CLOUDY    46  43  89 CALM      29.60R
LINCOLN        CLOUDY    48  45  89 S5        29.61S
NEBRASKA CITY  CLOUDY    45  45 100 CALM      29.60R
BEATRICE       CLOUDY    45  43  93 W18G28    29.64R
FALLS CITY     LGT RAIN  46  43  89 SW14      29.64R

...NORTHERN KANSAS...

CITY           SKY/WX    TMP DP  RH WIND       PRES   REMARKS
GOODLAND       CLEAR     39  31  72 N12       29.86R WCI  32
HILL CITY      CLEAR     43  36  76 NW9       29.86R
NORTON         CLEAR     39  32  75 NW9       29.83S WCI  33
PHILLIPSBURG   CLEAR     43  36  75 W3G16     29.83R
SMITH CENTER   CLEAR     39  34  81 W16G23    29.81R WCI  30
BELOIT         CLEAR     41  36  81 W12G18    29.79R
HAYS           CLEAR     45  32  61 NW10      29.85R
RUSSELL        CLEAR     42  36  79 W8        29.83R
CONCORDIA      CLEAR     42  35  76 W20G29    29.74S
SALINA         CLEAR     47  39  74 W10       29.81R
TOPEKA         CLEAR     51  38  60 W13G28    29.71F



USA.gov is the U.S. government's official web portal to all federal, state and local government web resources and services.